| time (UTC) | temp F | wind direction | speed MPH | gust MPH | rain 1hr in | rain 24hr in | rain mn in | humidity % | barometer mb |
| 20260506050126 | 48 | 355 | 0.0 | 3.0 | 0.00 | 0.00 | 0.00 | 54 | 1011.3 |
| 20260506044619 | 47 | 355 | 0.0 | 3.0 | 0.00 | 0.00 | 0.00 | 52 | 1011.4 |
| 20260506043034 | 47 | 5 | 0.0 | 3.0 | 0.00 | 0.00 | 0.00 | 50 | 1011.4 |
| 20260506041557 | 47 | 347 | 0.0 | 3.0 | 0.00 | 0.00 | 0.00 | 50 | 1011.4 |
| 20260506040149 | 47 | 325 | 0.0 | 1.0 | 0.00 | 0.00 | 0.00 | 54 | 1011.3 |
| 20260506034608 | 47 | 360 | 0.0 | 5.0 | 0.00 | 0.00 | 0.00 | 54 | 1011.3 |
| 20260506033006 | 47 | 355 | 1.0 | 3.0 | 0.00 | 0.00 | 0.00 | 57 | 1011.4 |
| 20260506031626 | 47 | 348 | 0.0 | 3.0 | 0.00 | 0.00 | 0.00 | 57 | 1011.4 |
| 20260506030019 | 47 | 360 | 0.0 | 4.0 | 0.00 | 0.00 | 0.00 | 57 | 1011.7 |
| 20260506024554 | 47 | 355 | 1.0 | 6.0 | 0.00 | 0.00 | 0.00 | 58 | 1011.6 |
| 20260506023056 | 47 | 12 | 1.0 | 5.0 | 0.00 | 0.00 | 0.00 | 60 | 1011.6 |
| 20260506021602 | 47 | 5 | 0.0 | 3.0 | 0.00 | 0.00 | 0.00 | 63 | 1011.7 |
| 20260506020110 | 47 | 360 | 1.0 | 4.0 | 0.00 | 0.00 | 0.00 | 64 | 1011.9 |
| 20260506014557 | 47 | 5 | 0.0 | 4.0 | 0.00 | 0.00 | 0.00 | 65 | 1011.8 |
| 20260506013138 | 47 | 5 | 0.0 | 2.0 | 0.00 | 0.00 | 0.00 | 65 | 1011.8 |
| 20260506011608 | 47 | 347 | 0.0 | 5.0 | 0.00 | 0.00 | 0.00 | 66 | 1011.7 |
| 20260506010152 | 47 | 355 | 1.0 | 6.0 | 0.00 | 0.00 | 0.00 | 67 | 1011.7 |
| 20260506004619 | 47 | 355 | 2.0 | 5.0 | 0.00 | 0.00 | 0.00 | 67 | 1011.6 |
| 20260506003010 | 47 | 28 | 0.0 | 5.0 | 0.00 | 0.00 | 0.00 | 70 | 1011.6 |
| 20260506001546 | 47 | 344 | 1.0 | 6.0 | 0.00 | 0.00 | 0.00 | 71 | 1011.7 |
| 20260506000050 | 48 | 360 | 2.0 | 5.0 | 0.00 | 0.00 | 0.00 | 72 | 1011.5 |
| 20260505234544 | 48 | 15 | 1.0 | 5.0 | 0.00 | 0.00 | 0.00 | 71 | 1011.4 |
| 20260505233103 | 47 | 22 | 2.0 | 4.0 | 0.00 | 0.00 | 0.00 | 70 | 1011.5 |
| 20260505231605 | 47 | 355 | 1.0 | 5.0 | 0.00 | 0.00 | 0.00 | 71 | 1011.6 |
| 20260505230053 | 46 | 355 | 1.0 | 5.0 | 0.00 | 0.00 | 0.00 | 71 | 1011.7 |
| 20260505224624 | 44 | 5 | 0.0 | 2.0 | 0.00 | 0.00 | 0.00 | 72 | 1011.8 |
| 20260505223200 | 44 | 340 | 0.0 | 2.0 | 0.00 | 0.00 | 0.00 | 73 | 1011.8 |
| 20260505221615 | 43 | 360 | 0.0 | 3.0 | 0.00 | 0.00 | 0.00 | 76 | 1011.8 |
| 20260505220013 | 43 | 9 | 0.0 | 2.0 | 0.00 | 0.00 | 0.00 | 76 | 1011.9 |
| 20260505214603 | 42 | 9 | 0.0 | 2.0 | 0.00 | 0.00 | 0.00 | 76 | 1011.8 |
| 20260505213108 | 42 | 13 | 0.0 | 2.0 | 0.00 | 0.00 | 0.00 | 75 | 1012.0 |
| 20260505211609 | 42 | 360 | 0.0 | 2.0 | 0.00 | 0.00 | 0.00 | 75 | 1012.0 |
| 20260505210150 | 42 | 360 | 0.0 | 1.0 | 0.00 | 0.00 | 0.00 | 75 | 1012.1 |
| 20260505204611 | 43 | 360 | 0.0 | 1.0 | 0.00 | 0.00 | 0.00 | 75 | 1012.0 |
| 20260505203148 | 43 | 360 | 0.0 | 0.0 | 0.00 | 0.00 | 0.00 | 73 | 1012.0 |
| 20260505201602 | 44 | 360 | 0.0 | 1.0 | 0.00 | 0.00 | 0.00 | 72 | 1012.1 |
| 20260505200140 | 45 | 360 | 0.0 | 0.0 | 0.00 | 0.00 | 0.00 | 70 | 1012.1 |
| 20260505194605 | 45 | 360 | 0.0 | 1.0 | 0.00 | 0.00 | 0.00 | 69 | 1012.2 |
| 20260505193154 | 46 | 5 | 0.0 | 2.0 | 0.00 | 0.00 | 0.00 | 69 | 1012.2 |
| 20260505191621 | 46 | 355 | 0.0 | 1.0 | 0.00 | 0.00 | 0.00 | 67 | 1012.1 |
| 20260505190153 | 47 | 344 | 0.0 | 1.0 | 0.00 | 0.00 | 0.00 | 66 | 1011.9 |
| 20260505184604 | 48 | 344 | 0.0 | 0.0 | 0.00 | 0.00 | 0.00 | 64 | 1012.0 |
| 20260505183156 | 48 | 344 | 0.0 | 1.0 | 0.00 | 0.00 | 0.00 | 62 | 1012.0 |
| 20260505181505 | 49 | 338 | 0.0 | 2.0 | 0.00 | 0.00 | 0.00 | 61 | 1011.7 |
| 20260505180105 | 49 | 348 | 0.0 | 1.0 | 0.00 | 0.00 | 0.00 | 59 | 1011.6 |
| 20260505174606 | 50 | 348 | 0.0 | 2.0 | 0.00 | 0.00 | 0.00 | 57 | 1011.8 |
| 20260505173154 | 50 | 355 | 0.0 | 2.0 | 0.00 | 0.00 | 0.00 | 60 | 1011.8 |
| 20260505171620 | 50 | 351 | 1.0 | 4.0 | 0.00 | 0.00 | 0.00 | 57 | 1011.8 |
| 20260505170044 | 50 | 5 | 1.0 | 3.0 | 0.00 | 0.00 | 0.00 | 56 | 1011.9 |
| 20260505164541 | 51 | 5 | 0.0 | 4.0 | 0.00 | 0.00 | 0.00 | 56 | 1011.8 |
| 20260505163058 | 51 | 10 | 0.0 | 4.0 | 0.00 | 0.00 | 0.00 | 55 | 1011.8 |
| 20260505161605 | 51 | 72 | 0.0 | 5.0 | 0.00 | 0.00 | 0.00 | 58 | 1011.9 |
| 20260505160154 | 51 | 28 | 1.0 | 3.0 | 0.00 | 0.00 | 0.00 | 62 | 1012.0 |
| 20260505153155 | 51 | 5 | 1.0 | 5.0 | 0.00 | 0.00 | 0.00 | 58 | 1011.9 |
| 20260505151619 | 51 | 360 | 1.0 | 4.0 | 0.00 | 0.00 | 0.00 | 55 | 1011.9 |
| 20260505150152 | 52 | 67 | 1.0 | 4.0 | 0.00 | 0.00 | 0.00 | 57 | 1011.9 |
| 20260505140115 | 53 | 24 | 1.0 | 5.0 | 0.00 | 0.00 | 0.00 | 62 | 1012.2 |
| 20260505130148 | 53 | 5 | 1.0 | 5.0 | 0.00 | 0.00 | 0.00 | 61 | 1012.1 |
| 20260505124616 | 52 | 325 | 0.0 | 6.0 | 0.00 | 0.00 | 0.00 | 64 | 1012.1 |
| 20260505123001 | 52 | 25 | 2.0 | 8.0 | 0.00 | 0.00 | 0.00 | 65 | 1012.3 |
| 20260505121624 | 52 | 11 | 2.0 | 5.0 | 0.00 | 0.00 | 0.00 | 64 | 1012.3 |
| 20260505120154 | 53 | 28 | 1.0 | 3.0 | 0.00 | 0.00 | 0.00 | 62 | 1012.4 |
| 20260505114615 | 52 | 330 | 0.0 | 4.0 | 0.00 | 0.00 | 0.00 | 62 | 1012.3 |
| 20260505113157 | 52 | 47 | 0.0 | 7.0 | 0.00 | 0.00 | 0.00 | 64 | 1012.4 |
| 20260505111623 | 51 | 5 | 1.0 | 8.0 | 0.00 | 0.00 | 0.00 | 64 | 1012.4 |
| 20260505101624 | 52 | 360 | 1.0 | 4.0 | 0.00 | 0.00 | 0.00 | 63 | 1012.3 |
| 20260505100045 | 52 | 15 | 0.0 | 4.0 | 0.00 | 0.00 | 0.00 | 62 | 1012.4 |
| 20260505094547 | 52 | 19 | 1.0 | 5.0 | 0.00 | 0.00 | 0.00 | 63 | 1012.4 |
| 20260505093100 | 52 | 336 | 1.0 | 4.0 | 0.00 | 0.00 | 0.00 | 66 | 1012.4 |
| 20260505091510 | 51 | 24 | 0.0 | 4.0 | 0.00 | 0.00 | 0.00 | 67 | 1012.3 |
| 20260505090051 | 51 | 35 | 1.0 | 3.0 | 0.00 | 0.00 | 0.00 | 70 | 1012.4 |
| 20260505084507 | 50 | 340 | 4.0 | 6.0 | 0.00 | 0.00 | 0.00 | 70 | 1012.3 |
| 20260505083102 | 50 | 9 | 0.0 | 5.0 | 0.00 | 0.00 | 0.00 | 73 | 1012.3 |
| 20260505081548 | 49 | 16 | 1.0 | 6.0 | 0.00 | 0.00 | 0.00 | 71 | 1012.2 |
| 20260505080106 | 49 | 348 | 0.0 | 5.0 | 0.00 | 0.00 | 0.00 | 74 | 1012.2 |
| 20260505074606 | 49 | 36 | 2.0 | 8.0 | 0.00 | 0.00 | 0.00 | 73 | 1012.1 |
| 20260505073154 | 49 | 319 | 1.0 | 3.0 | 0.00 | 0.00 | 0.00 | 71 | 1012.0 |
| 20260505071622 | 49 | 338 | 1.0 | 3.0 | 0.00 | 0.00 | 0.00 | 71 | 1011.9 |
| 20260505070157 | 49 | 351 | 0.0 | 3.0 | 0.00 | 0.00 | 0.00 | 74 | 1011.8 |
| 20260505064624 | 49 | 320 | 0.0 | 3.0 | 0.00 | 0.00 | 0.00 | 74 | 1011.9 |
| 20260505063045 | 49 | 281 | 0.0 | 3.0 | 0.00 | 0.00 | 0.00 | 77 | 1011.8 |
| 20260505061630 | 48 | 339 | 1.0 | 3.0 | 0.00 | 0.00 | 0.00 | 76 | 1011.8 |
| 20260505060051 | 47 | 311 | 0.0 | 2.0 | 0.00 | 0.00 | 0.00 | 78 | 1011.8 |